Index of /manuals/Inspection Programs/AAIP/206L Series/Rev 7/Section A/

NameLast ModifiedSize
UpParent Directory
DirectoryArchive2023-06-21 17:03-
DirectoryPDF2023-06-21 17:03-
[CMP]A Inspections.zip2023-06-21 16:52 656k
FileA0051 - 300 hr 12 Mon Pg 2.pdf2023-06-21 16:52 83k
FileA0051 - 300 hr 12 Mon.docx2023-06-21 16:52 48k
FileA0052 - 300 hr 12 Mon.docx2023-06-21 16:52 59k
FileA0053 - 300 hr 12 Mon Pg 2.pdf2023-06-21 16:52 82k
FileA0053 - 300 hr 12 Mon.docx2023-06-21 16:52 56k
FileA0053 - 300 hr 12 Mon.pdf2023-06-21 16:52 80k
FileA0054 - 300 hr 12 Mon Pg 1.pdf2023-06-21 16:52 86k
FileA0054 - 300 hr 12 Mon Pg 2.pdf2023-06-21 16:52 96k
FileA0054 - 300 hr 12 Mon.docx2023-06-21 16:52 48k
FileA0055 - 300 hr 12 Mon Pg 4.pdf2023-06-21 16:52 84k
FileA0055 - 300 hr 12 Mon.docx2023-06-21 16:52 46k
FileA0056 - 300 hr 12 Mon Pg 3.pdf2023-06-21 16:52 87k
FileA0056 - 300 hr 12 Mon.docx2023-06-21 16:52 48k
FileA0057 - 50 hr 3 Mon Lub.docx2023-06-21 16:52 34k
FileA0100 - 100 hr - Rev 5.docx2023-06-21 16:52 34k
FileA0100 - 100 hr 12 Mon Pg 2.pdf2023-06-21 16:52 105k
FileA0100 - 100 hr 12 Mon.docx2023-06-21 16:52 37k
FileA0250 - 200 hr 12 Mon Transmission Servicing.docx2023-06-21 16:52 29k
FileA0251 - 200 hr 12 Mon Tail Rotor Gearbox Servicing.docx2023-06-21 16:52 27k
FileA0350 - 300 hr 12 Mon Hydraulic System Servicing.docx2023-06-21 16:52 30k
FileA1200 - 1200 hr Cyclic Control Stick.docx2023-06-21 16:52 31k
FileA1200 - 1200 hr Main Rotor Hub.docx2023-06-21 16:52 33k
FileA1202 - 1200 hr Cyclic Control Stick.docx2023-06-21 16:52 34k
FileA1202 - 1200 hr Tailboom.docx2023-06-21 16:52 28k
FileA1500 - 1500 hr KAflex Driveshaft.docx2023-06-21 16:52 30k
FileA1700 - 12 Mon.docx2023-06-21 16:52 47k
FileA1710 - 12 Mon Mast.docx2023-06-21 16:52 30k
FileA1720 - 12 Mon Oil Cooler Insp - Rev 6.docx2023-06-21 16:52 41k
FileA1720 - 12 Mon Oil Cooler Insp - Rev 6.pdf2023-06-21 16:52 108k
FileA1720 - 12 Mon Oil Cooler Insp.docx2023-06-21 16:52 41k
FileA2400 - 24 Mon.docx2023-06-21 16:52 114k
FileBell 206L Table of Contents Pg vi.pdf2023-06-21 16:52 89k
Proudly Served by LiteSpeed Web Server at www.mhi.rotor-apps.com Port 443